Lid_Strength_Index
11 11 11 12 12 11 12 12 11 12 12 11 11 10 9 9 8 7 7 7 7 6 6 5 5 4 4 3 3 4 4 5 7 9 10 10 10 10 10 6 6 7 6
11 12 12 12 12 12 12 11 11 12 11 11 10 10 9 9 8 8 8 7 7 7 7 6 6 5 4 3 3 4 3 4 6 12 13 12 10 10 10 10 9 7 7
11 12 13 13 12 12 12 12 12 12 11 10 10 10 9 9 8 8 8 7 7 8 7 6 6 5 6 4 3 4 2 3 7 11 14 13 14 11 13 12 13 12 10
12 12 13 13 12 12 12 12 12 12 12 10 10 10 10 9 8 8 8 8 8 7 7 6 6 6 6 5 4 4 4 5 8 9 13 13 14 14 12 12 14 14 14
13 13 13 12 12 12 13 13 12 12 11 10 10 10 10 10 9 9 8 8 8 8 7 6 7 7 8 7 4 4 5 5 7 9 11 13 14 14 13 14 13 14 15
13 13 13 13 13 13 13 13 13 12 11 11 11 10 10 10 9 8 8 9 8 8 8 8 8 9 8 7 6 5 5 5 7 8 11 11 12 13 13 14 14 16 17
13 13 13 13 13 13 13 14 13 13 11 11 11 10 11 10 9 8 8 8 8 9 9 9 9 8 9 8 7 6 6 5 5 6 9 10 12 13 13 14 14 14 15
13 13 13 13 13 14 14 14 13 13 12 11 12 11 11 10 9 8 8 8 9 9 9 10 10 9 9 8 8 7 8 8 8 8 8 9 10 12 13 14 14 17 17
13 13 13 13 14 14 14 14 13 13 11 12 12 12 12 11 9 8 9 11 11 11 11 10 9 9 9 8 9 10 10 10 8 7 8 8 8 9 11 14 16 15 18
12 13 13 13 14 14 14 14 13 13 12 12 12 12 12 11 10 9 9 12 12 12 12 11 11 10 9 8 10 10 10 11 11 11 11 10 10 10 11 12 13 15 19
12 12 12 13 14 14 14 14 14 13 13 12 12 12 12 11 11 8 9 12 12 13 13 12 11 9 9 9 9 11 11 11 11 12 13 13 14 14 14 15 15 15 16
11 12 13 13 14 14 14 14 14 14 14 13 12 13 12 12 10 9 10 10 10 12 12 11 10 9 9 10 11 10 10 11 12 14 15 15 16 16 16 17 16 17 17
12 12 13 13 13 14 14 14 15 14 15 14 14 14 13 12 12 10 9 10 10 12 11 10 10 10 10 11 11 11 12 12 13 15 16 18 17 16 16 17 18 18 19
12 12 13 13 13 14 14 14 15 15 16 15 15 14 13 13 12 12 12 12 12 12 11 12 12 12 12 13 13 13 13 13 14 15 16 16 16 17 17 17 19 20 21
13 13 13 14 13 14 14 14 14 14 14 15 14 14 14 13 12 11 12 13 13 12 12 13 13 14 14 14 14 14 14 14 15 15 17 17 17 18 18 18 18 20 22
14 13 14 15 16 16 15 15 13 13 13 12 12 13 13 12 11 11 10 11 11 12 14 15 15 15 15 15 16 16 16 16 16 17 17 18 19 20 20 21 21 22 24
14 15 16 17 17 18 18 17 18 16 13 13 13 13 12 12 12 12 12 12 12 13 16 17 17 18 18 19 19 20 20 20 18 19 20 20 21 22 22 23 23 25 26
17 17 17 18 17 18 19 19 20 21 17 17 14 14 14 14 14 13 14 15 17 17 18 18 19 20 20 21 21 22 22 21 21 22 22 23 24 24 25 26 26 27 28
17 17 18 18 18 17 19 20 21 22 22 20 20 17 17 15 16 16 17 19 20 21 22 23 23 23 23 23 24 24 24 24 24 25 26 26 27 27 28 28 29 29 30
16 17 17 17 18 18 19 19 21 23 18 18 23 24 24 22 22 23 22 22 23 23 23 23 24 24 24 24 24 25 25 26 26 27 28 28 29 28 29 31 31 31 33
14 16 17 18 16 17 18 20 21 22 18 18 18 21 18 23 25 24 24 24 24 24 24 25 25 25 25 25 26 26 26 27 27 28 28 28 28 30 31 31 32 33 33
14 15 16 16 16 18 17 18 20 22 21 19 19 19 20 25 25 26 26 27 27 28 27 25 26 27 28 26 26 27 28 29 29 29 29 30 30 31 32 32 33 35 37
14 15 16 16 16 18 18 17 18 21 23 25 26 26 27 27 27 28 28 29 28 29 30 27 27 28 29 30 31 28 28 29 29 28 29 30 30 32 33 35 37 39 40
14 15 16 16 17 17 17 17 18 22 23 25 26 27 27 28 29 30 30 29 30 31 31 29 29 29 30 30 30 29 30 32 32 30 29 29 32 34 35 39 39 40 41
14 14 15 16 16 17 18 19 21 22 23 24 25 26 27 28 29 30 30 29 29 29 31 31 28 30 30 30 30 30 27 30 31 31 31 32 33 34 38 39 39 40 41
14 13 14 16 16 17 18 20 21 21 23 24 25 26 26 27 28 28 28 29 29 30 31 31 31 31 31 30 30 28 25 26 30 31 32 32 33 38 39 38 39 40 40